• In Uzbekistan
  • List of Countries
  • For 7 days
  • Water Temperature
  • Satellite Maps
  • Weather Map
  • Weather Widgets
  • user-avatar
    Login

    Hourly Weather Kinshasa

    Today, 16 October, Tuesday

    Time Temperature Precipitation Wind Pressure Humidity
    00:00 +21°C° 0.6 mm 0 mps 708 mmHg 93%
    01:00 +21°C° 0 mm 0 mps 708 mmHg 96%
    02:00 +21°C° 0 mm 0 mps 708 mmHg 96%
    03:00 +20°C° 0 mm 0 mps 708 mmHg 96%
    04:00 +20°C° 0 mm 0 mps 707 mmHg 96%
    05:00 +21°C° 0 mm 0 mps 708 mmHg 96%
    06:00 +21°C° 0 mm 0 mps 708 mmHg 95%
    07:00 +22°C° 0 mm 0 mps 709 mmHg 94%
    08:00 +24°C° 0.1 mm 0 mps 709 mmHg 84%
    09:00 +28°C° 0.1 mm 1 mps 709 mmHg 75%
    10:00 +30°C° 0.1 mm 1 mps 709 mmHg 65%
    11:00 +31°C° 0 mm 1 mps 709 mmHg 60%
    12:00 +32°C° 0 mm 1 mps 708 mmHg 55%
    13:00 +34°C° 0 mm 2 mps 708 mmHg 50%
    14:00 +34°C° 0 mm 2 mps 707 mmHg 53%
    15:00 +32°C° 0 mm 1 mps 707 mmHg 57%
    16:00 +32°C° 0 mm 1 mps 707 mmHg 60%
    17:00 +30°C° 0.1 mm 1 mps 707 mmHg 67%
    18:00 +28°C° 0.1 mm 1 mps 707 mmHg 73%
    19:00 +26°C° 0.1 mm 1 mps 707 mmHg 79%
    20:00 +25°C° 1.1 mm 1 mps 707 mmHg 84%
    21:00 +24°C° 1.1 mm 1 mps 707 mmHg 89%
    22:00 +23°C° 1.1 mm 1 mps 707 mmHg 93%
    23:00 +21°C° 0.7 mm 0 mps 707 mmHg 94%

    Tomorrow, 17 October, Wednesday

    Time Temperature Precipitation Wind Pressure Humidity
    00:00 +21°C° 0.7 mm 0 mps 707 mmHg 95%
    01:00 +21°C° 0.7 mm 0 mps 707 mmHg 96%
    02:00 +20°C° 0.1 mm 0 mps 707 mmHg 96%
    03:00 +22°C° 0.1 mm 1 mps 707 mmHg 96%
    04:00 +22°C° 0.1 mm 1 mps 707 mmHg 96%
    05:00 +22°C° 0.2 mm 1 mps 707 mmHg 96%
    06:00 +23°C° 0.2 mm 1 mps 707 mmHg 96%
    07:00 +23°C° 0.2 mm 1 mps 708 mmHg 96%
    08:00 +25°C° 1.3 mm 1 mps 708 mmHg 92%
    09:00 +26°C° 1.3 mm 1 mps 708 mmHg 89%
    10:00 +28°C° 1.3 mm 1 mps 709 mmHg 85%
    11:00 +29°C° 1.1 mm 1 mps 708 mmHg 82%
    12:00 +29°C° 1.1 mm 1 mps 707 mmHg 78%
    13:00 +28°C° 1.1 mm 0 mps 707 mmHg 74%
    14:00 +28°C° 0.5 mm 0 mps 706 mmHg 75%
    15:00 +28°C° 0.5 mm 0 mps 706 mmHg 75%
    16:00 +28°C° 0.5 mm 0 mps 705 mmHg 75%
    17:00 +28°C° 0.4 mm 1 mps 705 mmHg 81%
    18:00 +26°C° 0.4 mm 1 mps 706 mmHg 86%
    19:00 +24°C° 0.4 mm 1 mps 706 mmHg 91%
    20:00 +24°C° 0 mm 1 mps 706 mmHg 92%
    21:00 +24°C° 0 mm 1 mps 706 mmHg 93%
    22:00 +23°C° 0 mm 1 mps 707 mmHg 95%
    23:00 +23°C° 0.8 mm 1 mps 706 mmHg 96%

    Day after tomorrow, 18 October, Thursday

    Time Temperature Precipitation Wind Pressure Humidity
    00:00 +22°C° 0.8 mm 1 mps 706 mmHg 97%
    01:00 +22°C° 0.8 mm 1 mps 706 mmHg 98%
    02:00 +22°C° 0.6 mm 1 mps 706 mmHg 98%
    03:00 +22°C° 0.6 mm 1 mps 706 mmHg 98%
    04:00 +21°C° 0.6 mm 1 mps 705 mmHg 98%
    05:00 +22°C° 0.1 mm 1 mps 706 mmHg 97%
    06:00 +22°C° 0.1 mm 1 mps 707 mmHg 97%
    07:00 +23°C° 0.1 mm 1 mps 707 mmHg 96%
    08:00 +25°C° 0 mm 1 mps 708 mmHg 87%
    09:00 +27°C° 0 mm 1 mps 708 mmHg 78%
    10:00 +29°C° 0 mm 1 mps 708 mmHg 69%
    11:00 +30°C° 0.1 mm 1 mps 708 mmHg 66%
    12:00 +32°C° 0.1 mm 1 mps 707 mmHg 62%
    13:00 +31°C° 0.1 mm 0 mps 706 mmHg 59%
    14:00 +30°C° 0 mm 0 mps 705 mmHg 61%
    15:00 +29°C° 0 mm 0 mps 705 mmHg 64%
    16:00 +29°C° 0 mm 0 mps 704 mmHg 66%
    17:00 +27°C° 0.3 mm 0 mps 705 mmHg 74%
    18:00 +25°C° 0.3 mm 0 mps 705 mmHg 82%
    19:00 +22°C° 0.3 mm 0 mps 705 mmHg 90%
    20:00 +22°C° 0.2 mm 0 mps 706 mmHg 92%
    21:00 +22°C° 0.2 mm 0 mps 706 mmHg 93%
    22:00 +23°C° 0.2 mm 1 mps 707 mmHg 94%
    23:00 +23°C° 0.3 mm 1 mps 707 mmHg 95%

    19 October, Friday

    Time Temperature Precipitation Wind Pressure Humidity
    00:00 +23°C° 0.3 mm 1 mps 706 mmHg 97%
    01:00 +22°C° 0.3 mm 1 mps 706 mmHg 98%
    02:00 +22°C° 0 mm 1 mps 706 mmHg 98%
    03:00 +22°C° 0 mm 1 mps 706 mmHg 98%
    04:00 +22°C° 0 mm 1 mps 706 mmHg 98%
    05:00 +22°C° 0.3 mm 1 mps 706 mmHg 98%
    06:00 +22°C° 0.3 mm 1 mps 707 mmHg 98%
    07:00 +23°C° 0.3 mm 1 mps 707 mmHg 97%
    08:00 +25°C° 0 mm 1 mps 708 mmHg 88%
    09:00 +27°C° 0 mm 1 mps 708 mmHg 78%
    10:00 +29°C° 0 mm 1 mps 708 mmHg 68%
    11:00 +31°C° 0 mm 1 mps 708 mmHg 63%
    12:00 +32°C° 0 mm 1 mps 707 mmHg 59%
    13:00 +32°C° 0 mm 0 mps 706 mmHg 54%
    14:00 +33°C° 0.1 mm 1 mps 706 mmHg 57%
    15:00 +32°C° 0.1 mm 1 mps 705 mmHg 61%
    16:00 +31°C° 0.1 mm 1 mps 705 mmHg 65%
    17:00 +29°C° 0.4 mm 1 mps 705 mmHg 74%
    18:00 +27°C° 0.4 mm 1 mps 705 mmHg 82%
    19:00 +25°C° 0.4 mm 1 mps 705 mmHg 91%
    20:00 +24°C° 0 mm 1 mps 706 mmHg 90%
    21:00 +24°C° 0 mm 1 mps 706 mmHg 90%
    22:00 +22°C° 0 mm 0 mps 706 mmHg 90%
    23:00 +21°C° 0.2 mm 0 mps 706 mmHg 90%

    20 October, Saturday

    Time Temperature Precipitation Wind Pressure Humidity
    00:00 +21°C° 0.2 mm 0 mps 706 mmHg 91%
    01:00 +21°C° 0.2 mm 0 mps 706 mmHg 92%
    02:00 +21°C° 0 mm 0 mps 706 mmHg 93%
    03:00 +20°C° 0 mm 0 mps 706 mmHg 94%
    04:00 +20°C° 0 mm 0 mps 706 mmHg 95%
    05:00 +21°C° 0 mm 0 mps 706 mmHg 94%
    06:00 +21°C° 0 mm 0 mps 707 mmHg 93%
    07:00 +22°C° 0 mm 0 mps 708 mmHg 93%
    08:00 +23°C° 0.9 mm 0 mps 708 mmHg 90%
    09:00 +25°C° 0.9 mm 0 mps 708 mmHg 87%
    10:00 +27°C° 0.9 mm 0 mps 708 mmHg 85%
    11:00 +29°C° 1.2 mm 1 mps 708 mmHg 83%
    12:00 +29°C° 1.2 mm 1 mps 707 mmHg 82%
    13:00 +29°C° 1.2 mm 2 mps 706 mmHg 80%
    14:00 +28°C° 1 mm 1 mps 706 mmHg 83%
    15:00 +28°C° 1 mm 1 mps 706 mmHg 86%
    16:00 +28°C° 1 mm 1 mps 706 mmHg 89%
    17:00 +26°C° 0.2 mm 1 mps 706 mmHg 90%
    18:00 +23°C° 0.2 mm 0 mps 707 mmHg 91%
    19:00 +22°C° 0.2 mm 0 mps 707 mmHg 93%
    20:00 +22°C° 0 mm 0 mps 707 mmHg 93%
    21:00 +21°C° 0 mm 0 mps 707 mmHg 93%
    22:00 +21°C° 0 mm 0 mps 707 mmHg 94%
    23:00 +21°C° 0 mm 0 mps 706 mmHg 94%

    21 October, Sunday

    Time Temperature Precipitation Wind Pressure Humidity
    00:00 +20°C° 0 mm 0 mps 706 mmHg 95%
    01:00 +20°C° 0 mm 0 mps 706 mmHg 96%
    02:00 +20°C° 0 mm 0 mps 705 mmHg 96%
    03:00 +19°C° 0 mm 0 mps 705 mmHg 96%
    04:00 +19°C° 0 mm 0 mps 705 mmHg 97%
    05:00 +20°C° 0 mm 0 mps 706 mmHg 96%
    06:00 +20°C° 0 mm 0 mps 706 mmHg 95%
    07:00 +21°C° 0 mm 0 mps 707 mmHg 94%
    08:00 +25°C° 0 mm 1 mps 707 mmHg 82%
    09:00 +28°C° 0 mm 1 mps 707 mmHg 70%
    10:00 +30°C° 0 mm 1 mps 708 mmHg 58%
    11:00 +31°C° 0 mm 1 mps 707 mmHg 54%
    12:00 +32°C° 0 mm 2 mps 706 mmHg 51%
    13:00 +34°C° 0 mm 2 mps 705 mmHg 47%
    14:00 +34°C° 0 mm 2 mps 705 mmHg 51%
    15:00 +32°C° 0 mm 1 mps 705 mmHg 56%
    16:00 +32°C° 0 mm 1 mps 705 mmHg 60%
    17:00 +30°C° 0 mm 1 mps 705 mmHg 63%
    18:00 +27°C° 0 mm 0 mps 705 mmHg 67%
    19:00 +25°C° 0 mm 0 mps 706 mmHg 70%
    20:00 +24°C° 0.3 mm 0 mps 706 mmHg 74%
    21:00 +23°C° 0.3 mm 0 mps 706 mmHg 78%
    22:00 +22°C° 0.3 mm 0 mps 706 mmHg 82%
    23:00 +22°C° 0.1 mm 0 mps 705 mmHg 83%
    Show more